Change the Weather History Date:

Thursday, January 31, 2013

  Actual Average Record
Temperature  
Mean Temperature -6 °F -  
Max Temperature 10 °F 28 °F 48 °F (2012)
Min Temperature -20 °F 10 °F -20 °F (2011)
Degree Days  
Heating Degree Days 71    
Moisture  
Dew Point -13 °F    
Average Humidity 70    
Maximum Humidity 100    
Minimum Humidity 55    
Precipitation  
Precipitation 0.00 in - - ()
Sea Level Pressure  
Sea Level Pressure 30.18 in    
Wind  
Wind Speed 12 mph (WSW)    
Max Wind Speed 23 mph    
Max Gust Speed 23 mph    
Visibility 10 miles    
Events      
Averages and records for this station are not official NWS values.
T = Trace of Precipitation, MM = Missing Value Source: NWS Daily Summary

Daily Weather History Graph

Daily Weather History Graph

Search for Another Location

Airport or City:

Trip Planner

Search our weather history database for the weather conditions in past years. The results will help you decide how hot, cold, wet, or windy it might be!

Date:

Astronomy

Jan. 31, 2013 Rise Set
Actual Time 7:25 AM MST 5:00 PM MST
Civil Twilight 6:52 AM MST 5:33 PM MST
Nautical Twilight 6:16 AM MST 6:10 PM MST
Astronomical Twilight 5:40 AM MST 6:45 PM MST
Moon 10:30 PM MST (1/31) 9:03 AM MST (1/31)
Length of Visible Light 10h 40m
Length of Day
9h 35m
Waning Gibbous, 79% of the Moon is Illuminated
Jan 31
Waning Gibbous
Feb 3
Last Quarter
Feb 10
New
Feb 17
First Quarter
Feb 25
Full

Hourly Weather History & Observations

Time (MST) Temp. Windchill Dew Point Humidity Pressure Visibility Wind Dir Wind Speed Gust Speed Precip Events Conditions
12:15 AM -7.6 °F -31.1 °F -14.8 °F 71% 30.11 in 7.0 mi NNW 18.4 mph 23.0 mph N/A   Overcast
12:35 AM -7.6 °F -32.9 °F -14.8 °F 71% 30.12 in 7.0 mi NNW 21.9 mph - N/A   Overcast
12:55 AM -9.4 °F -35.8 °F -18.4 °F 65% 30.13 in 8.0 mi NNW 23.0 mph - N/A   Overcast
1:15 AM -9.4 °F -34.1 °F -16.6 °F 71% 30.15 in 10.0 mi NNW 19.6 mph - N/A   Overcast
1:35 AM -9.4 °F -28.9 °F -16.6 °F 71% 30.16 in 10.0 mi NNW 11.5 mph - N/A   Overcast
2:15 AM -11.2 °F -30.1 °F -20.2 °F 64% 30.18 in 10.0 mi NNW 10.4 mph - N/A   Clear
2:55 AM -13.0 °F -32.4 °F -20.2 °F 70% 30.21 in 10.0 mi North 10.4 mph - N/A   Clear
3:15 AM -13.0 °F -28.6 °F -20.2 °F 70% 30.21 in 10.0 mi NNW 6.9 mph - N/A   Clear
3:35 AM -14.8 °F -35.6 °F -22.0 °F 70% 30.22 in 10.0 mi NNW 11.5 mph - N/A   Clear
3:55 AM -14.8 °F -27.2 °F -22.0 °F 70% 30.23 in 10.0 mi NW 4.6 mph - N/A   Clear
4:35 AM -16.6 °F -36.8 °F -22.0 °F 76% 30.24 in 10.0 mi NNW 10.4 mph - N/A   Clear
4:55 AM -16.6 °F -34.4 °F -23.8 °F 70% 30.25 in 10.0 mi NNW 8.1 mph - N/A   Clear
5:15 AM -16.6 °F -34.4 °F -23.8 °F 70% 30.25 in 10.0 mi NNW 8.1 mph - N/A   Clear
5:55 AM -16.6 °F -31.3 °F -23.8 °F 70% 30.26 in 10.0 mi NNW 5.8 mph - N/A   Clear
6:15 AM -18.4 °F -35.1 °F -25.6 °F 70% 30.26 in 10.0 mi NW 6.9 mph - N/A   Clear
6:35 AM -18.4 °F -35.1 °F -29.2 °F 58% 30.26 in 10.0 mi NNW 6.9 mph - N/A   Clear
6:55 AM -20.2 °F -37.3 °F -27.4 °F 69% 30.27 in 10.0 mi WNW 6.9 mph - N/A   Clear
7:15 AM -18.4 °F -33.4 °F -18.4 °F 100% 30.28 in 10.0 mi WNW 5.8 mph - N/A   Clear
7:35 AM -18.4 °F -31.4 °F -27.4 °F 63% 30.30 in 10.0 mi SW 4.6 mph - N/A   Clear
7:55 AM -18.4 °F -31.4 °F -25.6 °F 70% 30.29 in 10.0 mi WNW 4.6 mph - N/A   Clear
8:15 AM -16.6 °F - -18.4 °F 92% 30.30 in 10.0 mi Calm Calm - N/A   Clear
8:35 AM -14.8 °F -27.2 °F -22.0 °F 70% 30.30 in 10.0 mi West 4.6 mph - N/A   Clear
9:55 AM -11.2 °F -27.8 °F -18.4 °F 70% 30.30 in 10.0 mi SW 8.1 mph - N/A   Clear
10:15 AM -11.2 °F -30.1 °F -18.4 °F 70% 30.30 in 10.0 mi West 10.4 mph - N/A   Clear
10:35 AM -9.4 °F -27.9 °F -16.6 °F 71% 30.30 in 10.0 mi WSW 10.4 mph - N/A   Clear
10:55 AM -9.4 °F -24.3 °F -18.4 °F 65% 30.30 in 10.0 mi WSW 6.9 mph - N/A   Clear
11:15 AM -7.6 °F -23.4 °F -16.6 °F 65% 30.29 in 10.0 mi WSW 8.1 mph - N/A   Clear
11:35 AM -5.8 °F -21.2 °F -14.8 °F 65% 30.28 in 10.0 mi SW 8.1 mph - N/A   Clear
11:55 AM -5.8 °F -19.9 °F -16.6 °F 60% 30.28 in 10.0 mi SW 6.9 mph - N/A   Clear
12:15 PM -4.0 °F -19.0 °F -14.8 °F 60% 30.27 in 10.0 mi SW 8.1 mph - N/A   Clear
12:35 PM -4.0 °F -17.8 °F -14.8 °F 60% 30.25 in 10.0 mi SW 6.9 mph - N/A   Clear
12:55 PM -2.2 °F -14.2 °F -14.8 °F 55% 30.23 in 10.0 mi SSW 5.8 mph - N/A   Clear
1:15 PM -2.2 °F -16.8 °F -13.0 °F 60% 30.22 in 10.0 mi SW 8.1 mph - N/A   Clear
1:35 PM -2.2 °F -16.8 °F -11.2 °F 66% 30.22 in 10.0 mi SW 8.1 mph - N/A   Clear
1:55 PM -2.2 °F -18.0 °F -9.4 °F 71% 30.21 in 10.0 mi SSW 9.2 mph - N/A   Clear
2:15 PM -2.2 °F -18.9 °F -11.2 °F 66% 30.19 in 10.0 mi SSW 10.4 mph - N/A   Mostly Cloudy
2:35 PM -2.2 °F -20.7 °F -11.2 °F 66% 30.19 in 10.0 mi SSW 12.7 mph - N/A   Mostly Cloudy
2:55 PM -0.4 °F -15.7 °F -9.4 °F 66% 30.18 in 10.0 mi SW 9.2 mph - N/A   Overcast
3:15 PM -0.4 °F -15.7 °F -9.4 °F 66% 30.19 in 10.0 mi SW 9.2 mph - N/A   Overcast
3:35 PM -0.4 °F -15.7 °F -7.6 °F 72% 30.18 in 10.0 mi SSW 9.2 mph - N/A   Overcast
3:55 PM -0.4 °F -14.7 °F -7.6 °F 72% 30.17 in 10.0 mi SSW 8.1 mph - N/A   Overcast
4:15 PM -0.4 °F -14.7 °F -7.6 °F 72% 30.16 in 10.0 mi SSW 8.1 mph - N/A   Overcast
4:35 PM -0.4 °F -14.7 °F -7.6 °F 72% 30.15 in 10.0 mi South 8.1 mph - N/A   Overcast
4:55 PM -0.4 °F -15.7 °F -7.6 °F 72% 30.15 in 10.0 mi South 9.2 mph - N/A   Overcast
5:15 PM 1.4 °F -13.5 °F -5.8 °F 72% 30.14 in 10.0 mi South 9.2 mph - N/A   Overcast
5:35 PM 1.4 °F -15.3 °F -5.8 °F 72% 30.11 in 10.0 mi SSW 11.5 mph - N/A   Overcast
6:15 PM 1.4 °F -14.5 °F -4.0 °F 78% 30.11 in 10.0 mi South 10.4 mph - N/A   Overcast
6:35 PM 3.2 °F -13.1 °F -4.0 °F 72% 30.10 in 10.0 mi South 11.5 mph - N/A   Overcast
6:55 PM 3.2 °F -12.2 °F -4.0 °F 72% 30.09 in 10.0 mi SSW 10.4 mph - N/A   Mostly Cloudy
7:15 PM 3.2 °F -13.1 °F -4.0 °F 72% 30.08 in 10.0 mi South 11.5 mph - N/A   Mostly Cloudy
7:35 PM 3.2 °F -13.9 °F -2.2 °F 78% 30.07 in 10.0 mi SSW 12.7 mph - N/A   Overcast
7:55 PM 5.0 °F -10.0 °F -2.2 °F 72% 30.07 in 10.0 mi SSW 10.4 mph - N/A   Mostly Cloudy
8:15 PM 5.0 °F -10.8 °F -0.4 °F 78% 30.06 in 10.0 mi SSW 11.5 mph - N/A   Mostly Cloudy
8:35 PM 6.8 °F -9.3 °F -0.4 °F 72% 30.05 in 10.0 mi SSW 12.7 mph - N/A   Overcast
8:55 PM 6.8 °F -7.8 °F -0.4 °F 72% 30.05 in 10.0 mi SSW 10.4 mph - N/A   Overcast
9:15 PM 6.8 °F -7.8 °F -0.4 °F 72% 30.04 in 10.0 mi SSW 10.4 mph - N/A   Overcast
9:35 PM 6.8 °F -10.0 °F 1.4 °F 79% 30.03 in 10.0 mi SSW 13.8 mph - N/A   Overcast
9:55 PM 8.6 °F -7.0 °F 1.4 °F 73% 30.02 in 10.0 mi SSW 12.7 mph - N/A   Overcast
10:15 PM 8.6 °F -8.3 °F 1.4 °F 73% 30.01 in 10.0 mi SSW 15.0 mph - N/A   Mostly Cloudy
11:35 PM 8.6 °F -3.7 °F 3.2 °F 79% 29.99 in 10.0 mi South 8.1 mph - N/A   Overcast
11:55 PM 10.4 °F -4.1 °F 5.0 °F 79% 29.99 in 10.0 mi SSW 11.5 mph - N/A   Scattered Clouds